FW1241 Weather Reports


Display with metric or nautical units.
time (UTC)temp
F
wind
direction
speed
MPH
gust
MPH
rain 1hr
in
rain 24hr
in
rain mn
in
humidity
%
barometer
mb
20260510105604 64 193 0.0 0.0 0.00 0.00 0.00 79 1010.7
20260510104104 64 284 0.0 0.0 0.00 0.00 0.00 78 1010.7
20260510103104 64 284 0.0 0.0 0.00 0.00 0.00 78 1010.6
20260510102604 64 284 0.0 0.0 0.00 0.00 0.00 78 1010.6
20260510102103 64 284 0.0 0.0 0.00 0.00 0.00 78 1010.5
20260510101604 64 285 0.0 0.0 0.00 0.00 0.00 77 1010.5
20260510101104 64 285 0.0 0.0 0.00 0.00 0.00 77 1010.4
20260510100104 65 284 0.0 0.0 0.00 0.00 0.00 76 1010.5
20260510095603 65 284 0.0 0.0 0.00 0.00 0.00 76 1010.5
20260510095104 65 284 0.0 0.0 0.00 0.00 0.00 76 1010.6
20260510092104 65 284 0.0 0.0 0.00 0.00 0.00 77 1010.6
20260510091604 65 284 0.0 0.0 0.00 0.00 0.00 78 1010.5
20260510090604 65 284 0.0 0.0 0.00 0.00 0.00 77 1010.5
20260510085103 66 284 0.0 0.0 0.00 0.00 0.00 78 1010.5
20260510084103 66 284 0.0 0.0 0.00 0.00 0.00 78 1010.6
20260510083604 66 284 0.0 0.0 0.00 0.00 0.00 77 1010.5
20260510083104 66 284 0.0 0.0 0.00 0.00 0.00 78 1010.5
20260510082603 66 284 0.0 0.0 0.00 0.00 0.00 78 1010.5
20260510080604 67 284 0.0 0.0 0.00 0.00 0.00 76 1010.4
20260510080104 66 284 0.0 1.0 0.00 0.00 0.00 77 1010.5
20260510074603 67 284 0.0 0.0 0.00 0.00 0.00 76 1010.6
20260510073604 67 284 0.0 0.0 0.00 0.00 0.00 75 1010.5
20260510071604 68 284 0.0 0.0 0.00 0.00 0.00 75 1010.6
20260510071105 68 284 0.0 0.0 0.00 0.00 0.00 74 1010.6
20260510070103 68 284 0.0 0.0 0.00 0.00 0.00 73 1010.5
20260510064104 69 284 0.0 0.0 0.00 0.00 0.00 73 1010.4
20260510061604 70 284 0.0 0.0 0.00 0.00 0.00 69 1010.3
20260510060603 70 284 0.0 0.0 0.00 0.00 0.00 69 1010.3
20260510060104 70 284 0.0 0.0 0.00 0.00 0.00 67 1010.3
20260510055104 71 284 0.0 0.0 0.00 0.00 0.00 67 1010.3
20260510054604 71 284 0.0 0.0 0.00 0.00 0.00 67 1010.3
20260510054103 71 284 0.0 0.0 0.00 0.00 0.00 64 1010.3
20260510053604 71 284 0.0 0.0 0.00 0.00 0.00 64 1010.3
20260510053103 71 284 0.0 0.0 0.00 0.00 0.00 64 1010.3
20260510052604 72 284 0.0 0.0 0.00 0.00 0.00 62 1010.3
20260510052104 72 284 0.0 0.0 0.00 0.00 0.00 63 1010.3
20260510045604 74 284 0.0 0.0 0.00 0.00 0.00 58 1010.3
20260510045103 74 284 0.0 0.0 0.00 0.00 0.00 57 1010.2
20260510044604 74 284 0.0 0.0 0.00 0.00 0.00 58 1010.2
20260510044103 74 284 0.0 0.0 0.00 0.00 0.00 58 1010.1
20260510043603 74 284 0.0 0.0 0.00 0.00 0.00 58 1010.1
20260510043103 74 284 0.0 0.0 0.00 0.00 0.00 58 1010.0
20260510042603 74 284 0.0 0.0 0.00 0.00 0.00 57 1010.0
20260510042103 74 284 0.0 0.0 0.00 0.00 0.00 57 1009.9
20260510041603 74 284 0.0 0.0 0.00 0.00 0.00 56 1009.9
20260510041104 75 284 0.0 0.0 0.00 0.00 0.00 56 1009.8
20260510035104 75 284 0.0 0.0 0.00 0.00 0.00 54 1009.6
20260510034603 76 284 0.0 0.0 0.00 0.00 0.00 53 1009.5
20260510033104 77 284 0.0 0.0 0.00 0.00 0.00 51 1009.3
20260510032604 77 284 0.0 0.0 0.00 0.00 0.00 50 1009.2
20260510032104 78 284 0.0 0.0 0.00 0.00 0.00 50 1009.1
20260510031603 79 284 0.0 0.0 0.00 0.00 0.00 49 1009.1
20260510025604 81 284 0.0 0.0 0.00 0.00 0.00 44 1008.9
20260510024104 83 285 0.0 0.0 0.00 0.00 0.00 41 1008.8
20260510022104 85 276 0.0 1.0 0.00 0.00 0.00 38 1008.6
20260510021103 86 301 0.0 1.0 0.00 0.00 0.00 37 1008.6
20260510015603 87 279 1.0 3.0 0.00 0.00 0.00 36 1008.6
20260510015104 88 309 1.0 3.0 0.00 0.00 0.00 36 1008.6
20260510014604 88 308 2.0 6.0 0.00 0.00 0.00 34 1008.6
20260510013603 89 300 1.0 3.0 0.00 0.00 0.00 34 1008.6
20260510012103 90 333 0.0 2.0 0.00 0.00 0.00 35 1008.6
20260510005604 90 312 1.0 3.0 0.00 0.00 0.00 33 1008.7
20260510005103 90 284 1.0 3.0 0.00 0.00 0.00 32 1008.7
20260510004603 90 308 1.0 3.0 0.00 0.00 0.00 34 1008.7
20260510004104 90 303 2.0 3.0 0.00 0.00 0.00 33 1008.7
20260510003604 90 341 1.0 2.0 0.00 0.00 0.00 32 1008.7
20260510001604 90 292 0.0 2.0 0.00 0.00 0.00 34 1008.8
20260510000604 90 300 1.0 3.0 0.00 0.00 0.00 31 1008.9
20260510000104 90 303 2.0 3.0 0.00 0.00 0.00 32 1008.8
20260509234603 90 310 0.0 5.0 0.00 0.00 0.00 31 1009.0
20260509234103 90 279 1.0 3.0 0.00 0.00 0.00 32 1009.1
20260509233104 90 88 1.0 5.0 0.00 0.00 0.00 30 1009.1
20260509232605 90 284 1.0 3.0 0.00 0.00 0.00 31 1009.2
20260509232103 90 281 1.0 3.0 0.00 0.00 0.00 32 1009.2
20260509231103 90 298 1.0 3.0 0.00 0.00 0.00 31 1009.3
20260509230604 90 297 0.0 1.0 0.00 0.00 0.00 30 1009.3
20260509225604 89 281 2.0 3.0 0.00 0.00 0.00 28 1009.5
20260509224604 89 294 1.0 3.0 0.00 0.00 0.00 27 1009.6
20260509223103 89 324 1.0 3.0 0.00 0.00 0.00 26 1009.9
20260509221104 89 309 2.0 3.0 0.00 0.00 0.00 30 1010.1
20260509215604 89 131 2.0 5.0 0.00 0.00 0.00 34 1010.3
20260509215104 89 318 1.0 5.0 0.00 0.00 0.00 36 1010.4
20260509214603 88 302 0.0 6.0 0.00 0.00 0.00 38 1010.5
20260509214104 88 285 1.0 3.0 0.00 0.00 0.00 38 1010.5
20260509212603 88 291 1.0 3.0 0.00 0.00 0.00 38 1010.8
20260509212103 88 304 0.0 2.0 0.00 0.00 0.00 39 1010.8
20260509210604 87 293 1.0 5.0 0.00 0.00 0.00 39 1011.1
20260509203104 85 297 0.0 3.0 0.00 0.00 0.00 45 1011.5
20260509202604 86 301 2.0 5.0 0.00 0.00 0.00 42 1011.6
20260509200604 84 187 0.0 3.0 0.00 0.00 0.00 46 1011.8
20260509200103 84 357 0.0 2.0 0.00 0.00 0.00 44 1011.9
20260509194104 82 301 1.0 3.0 0.00 0.00 0.00 49 1012.1
20260509193604 82 300 0.0 3.0 0.00 0.00 0.00 47 1012.2
20260509192104 82 257 0.0 3.0 0.00 0.00 0.00 52 1012.5
20260509190604 81 235 0.0 2.0 0.00 0.00 0.00 51 1012.7
20260509185104 80 177 0.0 2.0 0.00 0.00 0.00 51 1012.9
20260509183104 80 171 1.0 3.0 0.00 0.00 0.00 52 1013.0
20260509182604 79 202 1.0 2.0 0.00 0.00 0.00 52 1013.0
20260509181104 78 301 0.0 2.0 0.00 0.00 0.00 54 1013.3
20260509180604 78 171 0.0 2.0 0.00 0.00 0.00 54 1013.3
20260509180103 78 193 0.0 2.0 0.00 0.00 0.00 56 1013.4
20260509175104 77 164 1.0 3.0 0.00 0.00 0.00 56 1013.4
20260509174605 77 146 0.0 2.0 0.00 0.00 0.00 56 1013.4
20260509174104 77 192 1.0 5.0 0.00 0.00 0.00 57 1013.4
20260509173104 76 166 2.0 5.0 0.00 0.00 0.00 57 1013.5
20260509172604 76 170 1.0 5.0 0.00 0.00 0.00 58 1013.5
20260509171603 76 184 1.0 3.0 0.00 0.00 0.00 58 1013.5
20260509171103 76 345 1.0 3.0 0.00 0.00 0.00 60 1013.5
20260509165604 75 356 0.0 5.0 0.00 0.00 0.00 61 1013.5
20260509164604 74 200 2.0 7.0 0.00 0.00 0.00 61 1013.5
20260509164104 74 176 1.0 5.0 0.00 0.00 0.00 60 1013.4
20260509163104 73 147 1.0 3.0 0.00 0.00 0.00 63 1013.4
20260509162103 73 176 2.0 6.0 0.00 0.00 0.00 62 1013.5
20260509161103 72 194 0.0 5.0 0.00 0.00 0.00 64 1013.6
20260509160604 72 215 2.0 6.0 0.00 0.00 0.00 63 1013.7
20260509160103 71 199 1.0 5.0 0.00 0.00 0.00 64 1013.7
20260509155104 70 199 0.0 3.0 0.00 0.00 0.00 66 1013.8
20260509154103 70 183 1.0 6.0 0.00 0.00 0.00 66 1013.8
20260509152604 68 191 2.0 5.0 0.00 0.00 0.00 68 1014.0
20260509152103 68 164 0.0 3.0 0.00 0.00 0.00 70 1014.1
20260509151604 67 188 0.0 3.0 0.00 0.00 0.00 70 1014.2
20260509151103 67 184 1.0 3.0 0.00 0.00 0.00 70 1014.2
20260509150603 66 175 1.0 3.0 0.00 0.00 0.00 72 1014.2
20260509150104 66 130 0.0 1.0 0.00 0.00 0.00 72 1014.1
20260509145604 65 188 0.0 3.0 0.00 0.00 0.00 73 1014.1
20260509144603 64 176 1.0 3.0 0.00 0.00 0.00 75 1014.1
20260509144103 64 168 0.0 2.0 0.00 0.00 0.00 77 1014.2
20260509143604 63 176 0.0 2.0 0.00 0.00 0.00 78 1014.2
20260509142604 62 181 1.0 3.0 0.00 0.00 0.00 80 1014.1
20260509142103 61 183 0.0 1.0 0.00 0.00 0.00 82 1014.1
20260509141104 59 108 0.0 1.0 0.00 0.00 0.00 88 1013.9
20260509140103 57 176 0.0 0.0 0.00 0.00 0.00 89 1013.7
20260509134604 56 117 0.0 0.0 0.00 0.00 0.00 89 1013.6
20260509134103 56 117 0.0 0.0 0.00 0.00 0.00 89 1013.6
20260509133604 56 114 0.0 0.0 0.00 0.00 0.00 89 1013.5
20260509132604 56 114 0.0 1.0 0.00 0.00 0.00 89 1013.4
20260509132103 55 148 0.0 0.0 0.00 0.00 0.00 89 1013.4
20260509131605 56 150 0.0 0.0 0.00 0.00 0.00 90 1013.4
20260509131103 56 163 0.0 0.0 0.00 0.00 0.00 90 1013.4
20260509130104 55 163 0.0 0.0 0.00 0.00 0.00 89 1013.3
20260509125103 56 163 0.0 0.0 0.00 0.00 0.00 89 1013.2
20260509124604 56 162 0.0 0.0 0.00 0.00 0.00 89 1013.2
20260509123103 56 98 0.0 0.0 0.00 0.00 0.00 89 1013.0
20260509122604 56 98 0.0 0.0 0.00 0.00 0.00 89 1013.0
20260509122104 56 98 0.0 0.0 0.00 0.00 0.00 89 1012.9
20260509120104 57 98 0.0 0.0 0.00 0.00 0.00 88 1012.9
20260509115104 57 136 0.0 1.0 0.00 0.00 0.00 88 1012.9
20260509114604 57 115 0.0 1.0 0.00 0.00 0.00 87 1012.8
20260509114104 57 124 0.0 1.0 0.00 0.00 0.00 87 1012.8
20260509112103 57 117 0.0 1.0 0.00 0.00 0.00 86 1012.8
20260509111603 58 136 0.0 0.0 0.00 0.00 0.00 86 1012.8
20260509111103 58 136 0.0 0.0 0.00 0.00 0.00 86 1012.8
20260509110603 58 136 0.0 1.0 0.00 0.00 0.00 86 1012.8